Weather History for Visalia, CA

Change the Weather History Date:

Wednesday, February 13, 2013

  Actual Average Record
Temperature  
Mean Temperature 48 °F -  
Max Temperature 62 °F 61 °F 77 °F (1943)
Min Temperature 33 °F 42 °F 28 °F (1949)
Degree Days  
Heating Degree Days 18    
Moisture  
Dew Point 35 °F    
Average Humidity 65    
Maximum Humidity 87    
Minimum Humidity 37    
Precipitation  
Precipitation 0.00 in - - ()
Sea Level Pressure  
Sea Level Pressure 30.29 in    
Wind  
Wind Speed 2 mph (SE)    
Max Wind Speed 7 mph    
Max Gust Speed -    
Visibility 9 miles    
Events      
Averages and records for this station are not official NWS values.
T = Trace of Precipitation, MM = Missing Value Source: NWS Daily Summary

Daily Weather History Graph

Daily Weather History Graph

Search for Another Location

Airport:

Trip Planner

Search our weather history database for the weather conditions in past years. The results will help you decide how hot, cold, wet, or windy it might be!

Date:

Astronomy

Feb. 13, 2013 Rise Set
Actual Time 6:47 AM PST 5:36 PM PST
Civil Twilight 6:20 AM PST 6:03 PM PST
Nautical Twilight 5:50 AM PST 6:33 PM PST
Astronomical Twilight 5:20 AM PST 7:03 PM PST
Moon 8:27 AM PST (2/13) 9:35 PM PST (2/13)
Length of Visible Light 11h 42m
Length of Day
10h 49m
Waxing Crescent, 14% of the Moon is Illuminated
Feb 13
Waxing Crescent
Feb 17
First Quarter
Feb 25
Full
Mar 4
Last Quarter
Mar 11
New

Hourly Weather History & Observations

Time (PST) Temp. Windchill Dew Point Humidity Pressure Visibility Wind Dir Wind Speed Gust Speed Precip Events Conditions
12:15 AM 39.2 °F - 33.8 °F 81% 30.34 in 10.0 mi Calm Calm - N/A   Clear
12:35 AM 41.0 °F - 33.8 °F 76% 30.33 in 10.0 mi Calm Calm - N/A   Clear
12:55 AM 37.4 °F - 32.0 °F 81% 30.33 in 10.0 mi Calm Calm - N/A   Clear
1:15 AM 39.2 °F - 32.0 °F 75% 30.33 in 8.0 mi Calm Calm - N/A   Clear
1:35 AM 37.4 °F 34.9 °F 32.0 °F 81% 30.33 in 7.0 mi SE 3.5 mph - N/A   Clear
1:55 AM 39.2 °F 35.9 °F 33.8 °F 81% 30.32 in 7.0 mi East 4.6 mph - N/A   Clear
2:15 AM 37.4 °F 33.8 °F 32.0 °F 81% 30.32 in 9.0 mi East 4.6 mph - N/A   Clear
2:35 AM 39.2 °F - 32.0 °F 75% 30.32 in 10.0 mi Calm Calm - N/A   Clear
2:55 AM 37.4 °F - 30.2 °F 75% 30.33 in 10.0 mi Calm Calm - N/A   Clear
3:15 AM 37.4 °F - 30.2 °F 75% 30.33 in 10.0 mi Calm Calm - N/A   Clear
3:35 AM 37.4 °F - 30.2 °F 75% 30.32 in 10.0 mi Calm Calm - N/A   Clear
3:55 AM 37.4 °F - 30.2 °F 75% 30.32 in 10.0 mi Calm Calm - N/A   Clear
4:15 AM 35.6 °F - 30.2 °F 81% 30.32 in 8.0 mi Calm Calm - N/A   Clear
4:35 AM 35.6 °F - 30.2 °F 81% 30.33 in 6.0 mi Calm Calm - N/A   Clear
4:55 AM 35.6 °F - 32.0 °F 87% 30.33 in 6.0 mi Calm Calm - N/A   Clear
5:15 AM 35.6 °F - 30.2 °F 81% 30.33 in 8.0 mi Calm Calm - N/A   Clear
5:35 AM 35.6 °F - 30.2 °F 81% 30.33 in 8.0 mi Calm Calm - N/A   Clear
5:55 AM 33.8 °F 30.8 °F 28.4 °F 81% 30.33 in 6.0 mi SE 3.5 mph - N/A   Clear
6:15 AM 35.6 °F 31.7 °F 32.0 °F 87% 30.33 in 7.0 mi SE 4.6 mph - N/A   Clear
6:35 AM 33.8 °F - 28.4 °F 81% 30.33 in 5.0 mi Calm Calm - N/A   Clear
6:55 AM 35.6 °F - 32.0 °F 87% 30.34 in 8.0 mi Calm Calm - N/A   Clear
7:15 AM 35.6 °F 30.7 °F 30.2 °F 81% 30.34 in 7.0 mi SE 5.8 mph - N/A   Clear
7:35 AM 35.6 °F 29.9 °F 30.2 °F 81% 30.35 in 6.0 mi ESE 6.9 mph - N/A   Clear
7:55 AM 37.4 °F 32.8 °F 32.0 °F 81% 30.35 in 9.0 mi ESE 5.8 mph - N/A   Clear
8:15 AM 39.2 °F 35.0 °F 33.8 °F 81% 30.36 in 10.0 mi SSE 5.8 mph - N/A   Clear
8:35 AM 41.0 °F 38.0 °F 33.8 °F 76% 30.36 in 10.0 mi ESE 4.6 mph - N/A   Clear
8:55 AM 42.8 °F 40.1 °F 35.6 °F 76% 30.36 in 9.0 mi SE 4.6 mph - N/A   Clear
9:15 AM 44.6 °F 42.2 °F 35.6 °F 71% 30.35 in 8.0 mi SE 4.6 mph - N/A   Clear
9:35 AM 46.4 °F 43.5 °F 37.4 °F 71% 30.36 in 8.0 mi ESE 5.8 mph - N/A   Clear
9:55 AM 48.2 °F - 37.4 °F 66% 30.35 in 10.0 mi SSE 6.9 mph - N/A   Clear
10:15 AM 50.0 °F - 37.4 °F 62% 30.36 in 10.0 mi SSE 6.9 mph - N/A   Clear
10:35 AM 51.8 °F - 37.4 °F 58% 30.35 in 10.0 mi South 5.8 mph - N/A   Clear
10:55 AM 51.8 °F - 37.4 °F 58% 30.35 in 10.0 mi SSE 3.5 mph - N/A   Clear
11:15 AM 53.6 °F - 39.2 °F 58% 30.34 in 10.0 mi SSW 4.6 mph - N/A   Clear
11:35 AM 53.6 °F - 39.2 °F 58% 30.34 in 9.0 mi Calm Calm - N/A   Clear
11:55 AM 55.4 °F - 39.2 °F 54% 30.33 in 9.0 mi South 3.5 mph - N/A   Clear
12:15 PM 55.4 °F - 39.2 °F 54% 30.31 in 10.0 mi NW 3.5 mph - N/A   Clear
12:35 PM 59.0 °F - 42.8 °F 55% 30.30 in 9.0 mi NW 3.5 mph - N/A   Clear
12:55 PM 59.0 °F - 39.2 °F 48% 30.29 in 10.0 mi Calm Calm - N/A   Clear
1:15 PM 60.8 °F - 39.2 °F 45% 30.28 in 10.0 mi WNW 4.6 mph - N/A   Clear
1:35 PM 60.8 °F - 39.2 °F 45% 30.27 in 10.0 mi West 3.5 mph - N/A   Clear
1:55 PM 60.8 °F - 39.2 °F 45% 30.26 in 10.0 mi West 3.5 mph - N/A   Clear
2:15 PM 60.8 °F - 39.2 °F 45% 30.26 in 10.0 mi NNW 5.8 mph - N/A   Clear
2:35 PM 62.6 °F - 35.6 °F 37% 30.25 in 10.0 mi NNE 3.5 mph - N/A   Clear
2:55 PM 62.6 °F - 35.6 °F 37% 30.24 in 10.0 mi North 3.5 mph - N/A   Clear
3:15 PM 62.6 °F - 35.6 °F 37% 30.24 in 10.0 mi North 4.6 mph - N/A   Clear
3:35 PM 62.6 °F - 35.6 °F 37% 30.24 in 10.0 mi NNE 4.6 mph - N/A   Clear
3:55 PM 62.6 °F - 37.4 °F 39% 30.23 in 10.0 mi West 5.8 mph - N/A   Clear
4:15 PM 62.6 °F - 35.6 °F 37% 30.23 in 10.0 mi WNW 4.6 mph - N/A   Clear
4:35 PM 62.6 °F - 37.4 °F 39% 30.23 in 10.0 mi West 3.5 mph - N/A   Clear
4:55 PM 60.8 °F - 37.4 °F 42% 30.22 in 10.0 mi Calm Calm - N/A   Clear
5:15 PM 60.8 °F - 39.2 °F 45% 30.22 in 10.0 mi Calm Calm - N/A   Clear
5:35 PM 59.0 °F - 37.4 °F 45% 30.22 in 10.0 mi Calm Calm - N/A   Clear
5:55 PM 57.2 °F - 35.6 °F 44% 30.22 in 10.0 mi Calm Calm - N/A   Clear
6:15 PM 55.4 °F - 37.4 °F 51% 30.23 in 10.0 mi Calm Calm - N/A   Clear
6:35 PM 53.6 °F - 39.2 °F 58% 30.23 in 10.0 mi Calm Calm - N/A   Clear
6:55 PM 51.8 °F - 39.2 °F 62% 30.23 in 10.0 mi Calm Calm - N/A   Clear
7:15 PM 51.8 °F - 37.4 °F 58% 30.23 in 10.0 mi Calm Calm - N/A   Clear
7:35 PM 51.8 °F - 39.2 °F 62% 30.23 in 10.0 mi Calm Calm - N/A   Clear
7:55 PM 51.8 °F - 37.4 °F 58% 30.24 in 10.0 mi Calm Calm - N/A   Clear
8:15 PM 51.8 °F - 37.4 °F 58% 30.24 in 10.0 mi Calm Calm - N/A   Clear
8:35 PM 48.2 °F - 37.4 °F 66% 30.24 in 10.0 mi Calm Calm - N/A   Clear
8:55 PM 48.2 °F - 37.4 °F 66% 30.24 in 10.0 mi Calm Calm - N/A   Clear
9:15 PM 48.2 °F - 37.4 °F 66% 30.24 in 10.0 mi Calm Calm - N/A   Clear
9:35 PM 46.4 °F - 37.4 °F 71% 30.25 in 10.0 mi Calm Calm - N/A   Clear
9:55 PM 44.6 °F 43.1 °F 37.4 °F 76% 30.25 in 10.0 mi ESE 3.5 mph - N/A   Clear
10:15 PM 44.6 °F 42.2 °F 35.6 °F 71% 30.25 in 10.0 mi ESE 4.6 mph - N/A   Clear
10:35 PM 44.6 °F 41.4 °F 35.6 °F 71% 30.25 in 9.0 mi East 5.8 mph - N/A   Clear
10:55 PM 44.6 °F 42.2 °F 35.6 °F 71% 30.24 in 8.0 mi ESE 4.6 mph - N/A   Clear
11:15 PM 44.6 °F 43.1 °F 35.6 °F 71% 30.25 in 8.0 mi ESE 3.5 mph - N/A   Clear
11:35 PM 42.8 °F 41.1 °F 35.6 °F 76% 30.24 in 7.0 mi ESE 3.5 mph - N/A   Clear
11:55 PM 42.8 °F 41.1 °F 35.6 °F 76% 30.24 in 7.0 mi ESE 3.5 mph - N/A   Clear